Location: Goudie Road
(49.9333°N, 119.0750°W)
Time: 08:55:07
(UTC-07:00)

Daily predictions for brighter satellites

Satellite Brightness Start Highest point End
(mag) Time Altitude Azimuth Time Altitude Azimuth Time Altitude Azimuth
CZ-3A R/B 0.1 21:56:35 10° NW 21:57:34 27° NNE 21:58:37 10° E
Cosmos 1076 Rocket 4.4 21:54:35 10° SSW 21:58:51 52° WNW 22:03:08 10° N
Abrixas rocket 4.0 21:57:16 10° W 21:59:44 20° SSW 22:02:12 10° SSE
H-2A R/B 2.3 21:58:47 10° SSE 22:04:09 74° ENE 22:09:37 10° NNW
Lacrosse 5 3.3 22:00:52 10° WNW 22:05:05 27° SW 22:09:17 10° S
Cosmos 2151 3.5 22:05:10 10° SSE 22:09:13 42° E 22:13:18 10° NNE
SL-08 RB Rocket 3.8 22:04:51 10° SSE 22:09:26 83° WSW 22:14:07 10° NNW
SPOT 5 3.2 22:04:31 10° S 22:09:28 77° WSW 22:14:43 10° NNW
Meteor 2-10 4.4 22:05:06 10° NNW 22:10:43 77° W 22:16:26 10° S
Cosmos 1408 Rocket 4.1 22:07:47 10° SSW 22:12:02 59° WNW 22:16:22 10° N
Cosmos 1726 3.3 22:11:34 10° NNW 22:15:04 40° W 22:18:31 10° SSW
Cosmos 1626 3.0 22:12:44 10° SSE 22:16:07 34° E 22:19:32 10° NNE
Cosmos 1356 3.9 22:13:03 10° S 22:16:24 44° E 22:19:46 10° NNE
Cosmos 1703 4.0 22:14:41 10° SSE 22:18:22 36° E 22:22:02 10° NNE
Landsat 7 3.9 22:14:06 10° SSE 22:18:49 70° ENE 22:23:35 10° N
Tiangong 1 2.9 22:18:02 10° SW 22:19:34 14° SSW 22:20:43 11° S
Cosmos 2123 Rocket 4.1 22:14:15 10° S 22:20:26 88° W 22:26:42 10° N
Abrixas 3.5 22:23:03 10° SSW 22:25:11 21° SSE 22:27:19 10° ESE
Cosmos 1763 Rocket 4.3 22:26:23 10° NW 22:31:16 45° WSW 22:36:04 10° S
Cosmos 1300 4.1 22:28:06 10° NNW 22:31:38 36° W 22:35:09 10° SSW
Cosmos 841 Rocket 4.0 22:26:30 10° NNW 22:31:39 57° WSW 22:36:44 10° S
Cosmos 1354 Rocket 4.4 22:26:47 10° S 22:31:46 46° ESE 22:36:45 10° NE
Cosmos 1500 Rocket 3.6 22:28:56 10° S 22:33:25 87° E 22:37:53 10° N
Terra 1.9 22:29:25 12° SSE 22:33:45 69° ENE 22:38:31 10° N
PSLV R/B 4.3 22:32:07 14° SE 22:34:02 28° ENE 22:36:33 10° N
CZ-3B DEB 4.4 22:25:01 10° W 22:36:01 70° N 22:49:02 10° E
Cosmos 304 Rocket 3.8 22:31:26 10° NNW 22:36:16 86° WSW 22:40:25 14° SSE
Cosmos 2285 Rocket 4.1 22:30:27 10° NNW 22:36:51 89° ENE 22:42:35 13° SSE
Meteor 1-11 4.3 22:32:48 10° S 22:38:38 83° E 22:44:28 10° NNE
Cosmos 1486 Rocket 4.1 22:35:51 10° SSW 22:41:08 85° WNW 22:46:30 10° NNE
IGS 5A 3.5 22:39:22 14° SSE 22:42:53 79° ENE 22:47:04 10° NNW
Cosmos 2263 Rocket 2.1 22:38:06 10° SSW 22:43:39 72° ESE 22:49:15 10° NNE
ATLAS 5 CENTAUR R/B 3.9 22:39:36 10° W 22:44:05 34° NNW 22:49:02 10° NE
CARTOSAT-1 3.5 22:40:30 14° SSE 22:44:13 86° ENE 22:48:34 10° NNW
DMSP B5D2-2 4.1 22:42:28 10° NNE 22:47:44 74° ESE 22:52:56 10° S
Cosmos 2084 Rocket 3.3 22:44:07 10° NW 22:47:56 68° NE 22:50:59 15° SE
Cosmos 1151 Rocket 3.8 22:44:38 10° NNW 22:48:53 50° W 22:53:06 10° SSW
Cosmos 1805 Rocket 4.0 22:49:44 16° SSE 22:52:56 45° E 22:57:06 10° NNE
Cosmos 1633 Rocket 4.2 22:54:01 17° SE 22:56:34 29° E 23:00:21 10° NNE
COSMOS 2406 3.5 22:54:07 10° NNW 22:59:45 60° ENE 23:04:21 15° SE
Cosmos 2082 Rocket 4.4 22:57:41 10° N 23:01:35 19° NE 23:05:29 10° E
Cosmos 1464 Rocket 4.0 22:57:53 10° N 23:04:04 76° E 23:09:02 17° SSE
Cosmos 1455 2.5 23:00:37 10° NNW 23:04:27 65° W 23:07:19 17° S
H-2A R/B 2.1 23:01:49 17° S 23:05:04 77° WSW 23:09:17 10° NNW
USA 234 3.3 22:58:56 10° ENE 23:05:24 58° SE 23:11:49 10° SW
Cosmos 2058 3.6 23:03:48 10° SSW 23:07:56 56° WNW 23:12:06 10° N
Spot 4 3.9 23:08:10 18° SSE 23:11:45 83° ENE 23:16:39 10° NNW
SL-19 R/B 4.0 23:10:49 25° SE 23:12:14 50° ENE 23:15:14 10° N
SL-24 R/B - RUBIN 2 4.0 23:06:48 10° NW 23:12:32 85° NE 23:16:18 18° SE
Cosmos 1844 Rocket 3.5 23:13:19 19° SSE 23:16:28 32° ESE 23:21:23 10° NE
CZ-4C R/B 2.6 23:16:27 16° S 23:20:21 41° ESE 23:25:58 10° NE
Cosmos 540 Rocket 4.3 23:19:33 10° NW 23:24:24 42° WSW 23:28:08 16° SSW
CZ-4B R/B 3.6 23:20:33 10° NNE 23:25:49 65° ESE 23:29:37 19° S
Cosmos 1503 Rocket 4.3 23:22:34 10° SSW 23:27:44 67° WNW 23:32:54 10° NNE
BREEZE-M DEB 4.5 23:21:38 10° SW 23:33:36 40° SSE 23:37:21 10° E
Cosmos 1869 3.6 23:30:31 10° NNW 23:34:25 60° W 23:36:46 22° S
SL-27 R/B 4.0 23:32:35 10° N 23:35:28 26° ENE 23:37:21 16° ESE
Cosmos 968 Rocket 3.7 23:32:29 20° S 23:36:01 56° ESE 23:41:11 10° NNE
Cosmos 2242 Rocket 3.7 23:31:38 10° N 23:36:14 74° E 23:38:55 24° SSE
Cosmos 1933 3.7 23:35:06 10° N 23:39:09 56° ENE 23:41:15 26° SE
CZ-2C R/B 3.4 23:37:39 10° NNE 23:42:30 35° E 23:45:10 22° SE
H-2A R/B 4.2 23:40:18 10° SW 23:44:07 20° W 23:48:02 10° NW
Meteor 2-10 Rocket 3.7 23:40:01 10° N 23:45:24 70° ENE 23:48:56 23° SSE
Sich 1 3.0 23:42:48 21° SSW 23:45:38 79° WNW 23:49:56 10° N
Tsikada Rocket 4.1 23:41:14 21° S 23:45:41 67° E 23:51:56 10° NNE
Cosmos 1315 Rocket 3.9 23:49:27 23° SE 23:50:50 30° E 23:54:19 10° NNE
Cosmos 1626 4.4 23:48:42 10° WSW 23:51:35 21° WNW 23:54:30 10° NNW
Cosmos 1400 Rocket 3.1 23:49:48 28° SSE 23:51:46 58° E 23:55:52 10° NNE
CZ-4C R/B 4.1 23:51:51 23° SSW 23:54:21 52° W 23:58:43 10° NNW
